KEYWMYGF

Guest
Details From KEYW - Key West Intl
To MYGF - Grand Bahama Intl
Flight Number -
Tags generated
Created
Modified
Stats Distance 207 nm / 384 km
Max Altitude 21,400 ft / 6,523 m
Waypoints 3
Social Downloads 8
Likes 0
Share VATSIM

Download

Looking for another format? Having issues loading an existing format? Contact us
Advertisement - Login to hide

Notes

Basic altitude profile: - Ascent Rate: 2500ft/min - Ascent Speed: 250kts - Cruise Altitude: 35000ft - Cruise Speed: 420kts - Descent Rate: 1500ft/min - Descent Speed: 250kts

Route

KEYW DHP MYGF

ID Type Via Altitude Latitude Longitude Leg Dist Tot Dist Heading (true) Name
O KEYW APT - 0 ft / 0 m 24.55612˚ -81.75955˚ - 0 nm - Key West Intl
DHP VOR - 21,400 ft / 6,523 m 25.79997˚ -80.34903˚ 107 nm 107 nm 45° / 46° DOLPHIN VORTAC
O MYGF APT - 0 ft / 0 m 26.55868˚ -78.69555˚ 100 nm 207 nm 63° / 63° Grand Bahama Intl

Altitude Profile

Advertisement - Login to hide

Weather


0- 5 10 15 20 25 30 35+ Temperature / ° C

Clouds and Precipitation
Forecast for 2017-12-12 06:00 UTC. Updated 2 hours ago

Ground ~20,000 ft ~40,000 ft Winds

KEYW

Details ICAO KEYW (EYW)
Name Key West Intl
Region United States
Timezone America/New_York (UTC-5.0)
Stats Elevation 2 ft / 1 m (AMSL)
Location 24.556124° -81.759546°
Runways 1
Magnetic Variation 5.544° W

METAR

KEYW 120253Z AUTO 35006KT 10SM CLR 17/09 A3019 RMK AO2 SLP224 T01670094 51008

Decode

TAF

KEYW 112322Z 1200/1224 36007KT P6SM SKC FM120900 32008KT P6SM FEW030 FM121800 31012G19KT P6SM FEW030 SCT050

Decode

Departure Runways

ID Width Length Bearing (true) Bearing (mag) Surface Threshold Offset Overrun Length
09 100 ft / 30 m 4,794 ft / 1,461 m 89.38° 94.92° Asphalt 151 ft / 46 m 0 ft / 0 m
27 100 ft / 30 m 4,794 ft / 1,461 m 269.39° 274.93° Asphalt 151 ft / 46 m 0 ft / 0 m

MYGF

Details ICAO MYGF (FPO)
Name Grand Bahama Intl
Region Bahamas
Timezone America/Nassau (UTC-5.0)
Stats Elevation 7 ft / 2 m (AMSL)
Location 26.558684° -78.695553°
Runways 1
Magnetic Variation 7.724° W

METAR

Not found

TAF

TAF MYGF 112325Z 1200/1224 VRB02KT 9999 SCT030 BECMG 1212/1214 FEW030 BKN050

Decode

Destination Runways

ID Width Length Bearing (true) Bearing (mag) Surface Threshold Offset Overrun Length
06 151 ft / 46 m 11,016 ft / 3,358 m 60.89° 68.61° Asphalt 0 ft / 0 m 194 ft / 59 m
24 151 ft / 46 m 11,016 ft / 3,358 m 240.91° 248.63° Asphalt 0 ft / 0 m 200 ft / 61 m

Approach Navaids

Runway Type Ident Frequency Range Bearing (true) Bearing (mag) Slope Elevation
06 Localiser IZFP 109.70 MHz 18 nm / 33 km 60.91° 68.63° - 7 ft / 2 m (AMSL)
06 Glidescope IZFP 109.70 MHz 10 nm / 19 km 60.90° 68.63° 3.00° 7 ft / 2 m (AMSL)

Popular Alternatives